Location: Forbach
(48.6797°N, 8.3557°E)
Time: 08:46:19
(UTC+00:00)

Daily predictions for brighter satellites

Satellite Brightness Start Highest point End
(mag) Time Altitude Azimuth Time Altitude Azimuth Time Altitude Azimuth
BREEZE-M DEB (TANK) 2.4 15:58:11 10° W 16:00:48 84° N 16:07:41 10° E
USA 238 DEB 3.9 15:55:32 10° SSW 16:01:23 52° ESE 16:07:48 10° NE
USA 238 3.9 15:55:38 10° SSW 16:01:29 51° ESE 16:07:54 10° NE
Cosmos 2279 Rocket 4.4 15:57:26 10° SSW 16:03:38 71° WNW 16:09:54 10° N
Cosmos 1782 3.8 16:03:27 10° SSW 16:06:52 41° WNW 16:10:17 10° N
COSMOS 2455 4.3 16:03:37 10° SSE 16:07:39 19° ESE 16:11:40 10° ENE
Cosmos 1503 Rocket 4.4 16:02:57 10° SSW 16:08:08 66° WNW 16:13:19 10° NNE
USA 215 3.6 16:02:19 10° NE 16:08:42 58° NNW 16:15:06 10° W
BREEZE-M DEB (TANK) 3.5 16:07:26 10° WNW 16:10:15 55° N 16:18:57 10° E
SL-16 R/B 2.6 16:04:23 10° NNE 16:10:36 67° ESE 16:16:44 10° S
Cosmos 1805 4.3 16:10:14 10° NNE 16:12:45 19° ENE 16:15:14 10° ESE
Cosmos 1606 Rocket 3.6 16:09:15 10° S 16:13:36 64° E 16:18:01 10° NNE
Cosmos 2058 Rocket 4.1 16:13:17 10° SE 16:17:01 26° E 16:20:45 10° NNE
Cosmos 2082 3.9 16:14:16 10° NNW 16:19:50 51° NE 16:25:24 10° SE
Cosmos 1484 Rocket 2.5 16:17:55 10° SSE 16:21:25 84° WSW 16:24:54 10° NNW
Cosmos 1354 Rocket 4.3 16:16:40 10° SSW 16:21:54 71° WNW 16:27:09 10° NNE
Cosmos 1898 Rocket 4.0 16:18:15 10° S 16:23:00 39° ESE 16:27:48 10° NE
IRS-1C 4.4 16:18:06 10° SE 16:23:08 44° ENE 16:28:11 10° N
Gbstr 26 Del rocket 2.9 16:22:28 10° W 16:26:41 66° NNW 16:30:04 13° ENE
CORIOLIS 4.1 16:21:32 10° SSE 16:26:48 65° ENE 16:32:06 10° N
Thor Agena Rocket 3.5 16:23:00 10° SSE 16:28:08 72° ENE 16:33:15 10° NNW
Cosmos 990 Rocket 4.2 16:23:58 10° SSW 16:29:05 72° WNW 16:34:17 10° NNE
SMAP 3.1 16:25:53 10° SSE 16:30:28 62° ENE 16:35:05 10° N
Cosmos 1937 Rocket 4.2 16:27:24 10° SSE 16:32:01 35° ESE 16:36:39 10° NE
SL-16 R/B 3.7 16:28:52 10° SE 16:32:27 17° E 16:35:11 13° ENE
Landsat 7 3.9 16:28:46 10° SSE 16:33:16 53° ENE 16:37:49 10° N
Cosmos 1726 Rocket 3.6 16:28:49 10° S 16:33:24 75° E 16:37:55 10° NNE
Cosmos 1844 Rocket 3.5 16:30:11 10° NNW 16:35:10 30° NE 16:40:08 10° ESE
CZ-2D R/B 3.2 16:32:30 10° SE 16:35:25 36° ENE 16:38:21 10° N
Cosmos 1655 Rocket 4.0 16:29:56 10° N 16:36:11 73° E 16:42:23 10° SSE
Cosmos 1536 4.0 16:35:27 10° NNE 16:38:04 18° ENE 16:40:40 10° ESE
Cosmos 923 Rocket 4.1 16:35:34 10° NNW 16:40:38 50° ENE 16:45:39 10° SE
Cosmos 1980 Rocket 2.2 16:36:08 10° SSW 16:41:47 82° ESE 16:47:26 10° NNE
YAOGAN 1 3.8 16:39:07 10° ESE 16:42:14 20° ENE 16:45:21 10° NNE
COSMO-SKYMED 1 4.2 16:42:29 14° E 16:42:29 14° E 16:44:31 10° ESE
EXPRESS MD2 2.8 16:42:05 10° SW 16:44:25 51° SSE 16:46:31 18° E
Cosmos 2263 Rocket 2.7 16:39:40 10° NNW 16:45:19 66° WSW 16:50:56 10° SSE
USA 308 3.3 16:43:43 10° SSW 16:46:28 33° SE 16:48:37 18° E
NOSS 3-2 (C) 4.3 16:44:57 10° W 16:49:54 38° NNW 16:55:37 11° NE
Cosmos 2219 3.3 16:44:21 10° NNW 16:50:08 86° WSW 16:55:53 10° SSE
Meteor 2-20 Rocket 4.4 16:49:30 10° S 16:55:28 58° E 17:01:15 10° NNE
MOS 1 Rocket 3.5 16:51:31 10° SSE 16:56:34 67° ENE 17:01:52 10° N
Meteor 1-28 Rocket 4.0 16:56:25 10° N 16:59:37 43° WNW 17:02:46 10° SW
Cosmos 1076 Rocket 4.1 16:56:42 10° NNW 17:00:58 60° W 17:05:12 10° S
Cosmos 2221 3.7 16:59:44 10° SE 17:02:29 21° E 17:02:29 21° E
NOSS 2-3 (C) 4.1 17:03:31 10° WSW 17:06:48 38° NW 17:09:16 17° NNE
Aureole 1 Rocket 3.9 17:02:00 10° SSW 17:06:57 71° WNW 17:13:14 10° NNE
CENTAUR R/B 4.1 17:01:20 10° NW 17:07:03 26° N 17:11:46 16° NE
AQUARIUS 4.0 17:04:21 10° SSE 17:08:44 83° ENE 17:13:11 10° NNW
Cosmos 2369 3.7 17:03:06 10° SSW 17:08:49 77° ESE 17:13:38 15° NNE
ARIANE 5 R/B 2.6 17:03:44 10° SSE 17:08:50 80° WSW 17:14:03 10° NNW
Nadezhda 2 Rocket 4.4 17:03:07 10° N 17:09:13 66° ENE 17:15:16 10° SSE
NOSS 2-3 (D) 4.5 17:06:08 10° WSW 17:09:31 34° NW 17:12:07 16° NNE
Cosmos 1553 Rocket 4.0 17:03:50 10° S 17:09:52 57° E 17:16:03 10° NNE
Cosmos 1680 Rocket 3.4 17:05:34 10° NNW 17:10:47 65° ENE 17:16:00 10° SSE
Cosmos 1953 Rocket 4.5 17:07:03 10° NNW 17:11:24 52° W 17:15:42 10° S
IRS-P3 4.0 17:06:19 10° SSE 17:11:38 78° ENE 17:16:57 10° NNW
SKYMED 2 4.0 17:10:51 22° NE 17:13:13 40° E 17:17:19 10° SSE
Cosmos 2360 Rocket 3.5 17:10:40 10° SE 17:14:08 19° ESE 17:14:08 19° ESE
SL-24 R/B - RUBIN 2 3.9 17:12:32 10° SSW 17:17:52 70° SE 17:20:31 27° NE
Meteor 1-26 Rocket 4.0 17:14:07 10° S 17:19:30 85° E 17:24:57 10° NNE
Cosmos 1697 Rocket 4.2 17:14:57 10° WSW 17:19:52 30° NW 17:24:50 10° NNE
Cosmos 1709 Rocket 4.4 17:15:03 10° N 17:20:36 35° ENE 17:26:09 10° SE
SJ-12 4.3 17:17:54 10° S 17:21:37 59° WSW 17:25:23 10° NNW
GEOS 3 Rocket 3.7 17:18:50 25° NE 17:22:01 63° SE 17:27:20 10° SSW
NOAA 6 4.4 17:19:57 10° SE 17:24:38 39° ENE 17:29:21 10° N
UNK 4.5 17:20:26 10° N 17:24:52 52° WNW 17:29:15 10° SW
Okean 1 3.1 17:21:23 10° SSW 17:24:58 76° W 17:27:34 18° N
Cosmos 1745 Rocket 4.1 17:20:10 10° N 17:26:08 49° ENE 17:32:04 10° SSE
Cosmos-2242 3.3 17:24:02 10° SSW 17:28:15 66° WNW 17:32:30 10° N
Cosmos 44 Rocket 3.3 17:24:12 10° NW 17:29:22 78° NE 17:34:08 12° SE
CZ-2D R/B 3.3 17:26:43 10° SSE 17:30:49 64° ENE 17:34:51 10° N
Cosmos 1812 Rocket 3.9 17:27:51 10° SSE 17:31:37 39° E 17:31:37 39° E
Cosmos 2278 Rocket 4.3 17:33:49 10° N 17:34:49 11° NNE 17:34:49 11° NNE
Meteor 2-2 Rocket 4.4 17:30:48 10° SSW 17:36:25 75° WNW 17:42:05 10° N
Cosmos 1386 Rocket 4.3 17:31:49 10° N 17:37:58 75° E 17:44:12 10° SSE
Lacrosse 5 rocket 1.6 17:38:16 10° NW 17:41:19 43° N 17:41:19 43° N
Cosmos 2322 Rocket 2.8 17:37:45 10° S 17:42:47 35° ESE 17:42:47 35° ESE
SJ-7 4.1 17:39:10 10° SSE 17:43:13 63° NE 17:46:39 10° N
Cosmos 2333 Rocket 2.5 17:39:04 10° S 17:44:31 45° ESE 17:45:28 41° E
SPOT 1/Viking Rocket 3.7 17:41:37 10° S 17:46:49 75° WSW 17:52:02 10° NNW
Cosmos 1417 Rocket 4.4 17:42:47 10° S 17:48:50 63° E 17:53:59 15° NNE
USA 215 3.9 17:48:37 31° NE 17:51:07 43° N 17:57:13 10° WNW
USA 238 DEB 4.3 17:46:26 10° WSW 17:52:26 46° NW 17:56:21 23° NNE
USA 238 4.3 17:46:30 10° WSW 17:52:31 46° NW 17:56:26 23° NNE
COSMOS 2455 2.8 17:46:45 10° SSW 17:52:47 88° NW 17:55:34 34° NNE
SL-16 R/B 4.3 17:48:38 10° N 17:53:42 27° WNW 17:58:43 10° WSW
USA 59 Rocket 1.2 17:50:47 10° SSW 17:52:34 22° S 17:52:34 22° S
NOSS 3-1 (C) 3.8 17:52:28 10° S 17:55:36 32° SSE 17:55:36 32° SSE
Cosmos 1844 3.6 17:53:24 10° NNW 17:59:00 86° WSW 18:04:20 11° SSE
PSLV R/B 3.4 17:59:45 10° SSE 18:03:48 81° WSW 18:07:53 10° NNW
Meteor 2-7 Rocket 4.5 17:59:24 10° S 18:04:51 73° E 18:06:13 51° NNE
SL-19 R/B 4.2 17:59:40 10° SSE 18:05:11 86° WSW 18:11:05 10° NNW
Radarsat Rocket 4.5 17:58:06 10° SSE 18:05:59 86° WSW 18:12:57 10° NNW
OceanSat 1 rocket 4.5 18:02:06 10° SSE 18:06:49 89° WSW 18:11:33 10° NNW
Resurs 1-3 3.9 18:04:54 10° S 18:09:09 62° WSW 18:13:27 10° NNW
USA 308 3.5 18:06:54 10° WSW 18:09:27 45° W 18:09:27 45° W
Spot 4 Rocket 4.4 18:06:48 10° S 18:11:51 64° WSW 18:16:57 10° NNW
Gbstr 26 Del rocket 3.8 18:09:24 10° WNW 18:12:06 38° NW 18:12:06 38° NW
Cosmos 1536 4.0 18:10:06 10° NNW 18:13:36 38° W 18:17:03 10° SSW
SL-16 R/B 2.1 18:10:07 10° SSW 18:15:47 83° WNW 18:17:04 56° NNE
YAOGAN 1 3.4 18:13:38 10° S 18:17:46 49° W 18:21:55 10° NNW
COSMO-SKYMED 1 3.0 18:18:48 56° WSW 18:18:48 56° WSW 18:22:16 10° SSW
Meteor 2-9 Rocket 4.1 18:13:02 10° NNW 18:18:22 77° W 18:23:39 10° S
Cosmos 1844 Rocket 3.2 18:13:50 10° NW 18:19:23 57° WSW 18:24:55 10° S
Cosmos 381 Rocket 4.4 18:15:23 10° NNW 18:21:33 63° NE 18:21:33 63° NE
Meteor 1-11 Rocket 3.7 18:17:53 10° NNW 18:23:48 89° ENE 18:29:33 10° S
Cosmos 1980 Rocket 4.1 18:22:02 10° W 18:26:27 23° NW 18:29:34 15° N
BREEZE-M DEB (TANK) 4.2 18:13:25 10° WNW 18:32:31 64° SW 18:34:23 45° SSE
Cosmos 1943 Rocket 4.3 18:28:35 10° N 18:29:19 13° N 18:29:19 13° N
Cosmos 1048 Rocket 4.3 18:33:15 10° NNW 18:38:34 65° WSW 18:38:42 65° WSW
Cosmos 2221 3.9 18:35:47 10° SW 18:38:54 35° WSW 18:38:54 35° WSW
Meteor 1-19 Rocket 4.3 18:34:26 10° SSW 18:39:50 73° W 18:39:50 73° W
Cosmos 2285 Rocket 3.9 18:35:42 10° SSW 18:42:00 85° WNW 18:42:06 84° NW
Cosmos 2278 4.0 18:37:57 10° SW 18:43:35 61° WNW 18:43:53 60° NW
Meteor 1-10 Rocket 4.4 18:41:06 10° SSW 18:46:42 69° W 18:46:42 69° W
Cosmos 2315 Rocket 4.3 18:51:09 10° SSW 18:57:29 66° WNW 18:58:25 59° NW
Cosmos 2360 Rocket 3.1 18:52:11 10° SSW 18:55:55 43° SW 18:55:55 43° SW
CENTAUR R/B 3.9 18:53:01 10° NW 18:58:51 35° N 18:58:51 35° N
Cosmos 2219 Rocket 4.2 19:04:23 10° SSW 19:05:46 18° SSW 19:05:46 18° SSW
Cosmos 2322 Rocket 3.7 19:21:19 10° SW 19:24:38 32° WSW 19:24:38 32° WSW
Cosmos 2333 Rocket 3.7 19:23:35 10° WSW 19:27:32 33° W 19:27:32 33° W
USA 215 4.3 19:35:58 37° NW 19:35:58 37° NW 19:39:53 10° NW
